STARLINK-32083, 60343

Orbit data source: Space-Track

STARLINK-32083, 60343 is a payload satellite owned by SpaceX/Seattle (US) in LEO that was launched on Fri, 02 Aug 2024 UTC via an FALCON 9 launch vehicle from the Air Force Eastern Test Range (AFETR). Payload-class satellites include a variety of spacecraft equipped with specific instruments for various scientific and technological missions. These include communications satellites like Starlink; space stations such as the ISS; scientific satellites like the Hubble; Earth observation satellites from companies like Planet Labs, Umbra, and HawkEye 360; GPS; miniature CubeSats for education and research; and military/defense satellites.

Loading next visibility...
Identifier
60343, 2024-136Q
Orbit
LEO
Country
Flag of USUS
Related business
Manufacturer
SpaceX/Seattle
Mission
Operational Commercial Communications
Bus & Motor
STARLINK V2M, Unknown motor
Mass
730 kg wet, ~700 kg dry
Launch date (UTC)
2024-08-02 (2 years ago)
Launch vehicle
FALCON 9
Launch site
Air Force Eastern Test Range (AFETR)
Object type
Payload
Rocket body
Debris
Shape & HBR
Box + 2 Pan, 17.7 m
Radar Cross Section
33.884 m², Large (>1 m²)

Expand to show TLE details & history
Last TLE update: 10 hours ago

TLE from 10 hours ago
0 STARLINK-32083
1 60343U 24136Q   26034.91243627  .00000177  00000-0  18102-4 0  9992
2 60343  53.1583 232.4836 0001085  97.7687 262.3437 15.30193947 84493
Epoch: 2026-02-03T21:53Z
TLE epoch observation values (Epoch: 2026-02-03T21:53:54.493Z)
Latitude
-0.00003°
Longitude
129.91996°
Altitude
476.232 km
Speed
7.629 km/s
True Right ascension
15h 29m 56s
True Declination
0° 00' 00"
Sunlit
Object was in daylight at epoch
Visualization orbit readout
Latitude
Unknown
Longitude
Unknown
Altitude
Unknown
Speed
Unknown
Apparent Right ascension
Unknown
Apparent Declination
Unknown
Sunlit
N/A
Visualization observer readout
Local Sidereal Time
10:08:43
Azimuth
Unknown
Elevation
Unknown
Doppler factor
Unknown
Orbital elements
Apogee altitude
476.233 km
Perigee altitude
474.746 km
Semi-major axis
6,853.627 km
Eccentricity
0.00011
Inclination
53.1583°
RAAN
232.4836°
Arg. of periapsis
97.7687°
True anomaly
262.33138°
Mean anomaly
262.3437°
Eccentric anomaly
262.33754°
Mean motion
3.82527 °/min
Orbital period
94.11 mins
BSTAR
0.000018102
Loading maneuver chart data...
Computing Atmospheric mass density...
Loading historical data...
Loading historical data...
Loading historical data...
Loading historical data...
Loading historical data...
Loading historical data...
Loading historical data...

Documentation

Showing up to 5 results
|